Bentonville, AR

3:20 PM CDT on August 21, 2017 (GMT -0500)
Bentonville Municipal-Thaden

Weather History for KVBT - February, 2014

Change the Weather History Date:

Friday, February 28, 2014

  Actual Average Record
Temperature  
Mean Temperature 38 °F -  
Max Temperature 44 °F 54 °F 76 °F (1955)
Min Temperature 32 °F 31 °F 4 °F (1962)
Degree Days  
Heating Degree Days 27    
Moisture  
Dew Point 26 °F    
Average Humidity 61    
Maximum Humidity 81    
Minimum Humidity 42    
Precipitation  
Precipitation 0.03 in - - ()
Sea Level Pressure  
Sea Level Pressure 29.86 in    
Wind  
Wind Speed 10 mph (SE)    
Max Wind Speed 17 mph    
Max Gust Speed 23 mph    
Visibility 10 miles    
Events      
Averages and records for this station are not official NWS values.
T = Trace of Precipitation, MM = Missing Value Source: NWS Daily Summary

Daily Weather History Graph

Daily Weather History Graph

Search for Another Location

Airport or City:

Trip Planner

Search our weather history database for the weather conditions in past years. The results will help you decide how hot, cold, wet, or windy it might be!

Date:

Astronomy

Feb. 28, 2014 Rise Set
Actual Time 6:48 AM CST 6:10 PM CST
Civil Twilight 6:22 AM CST 6:36 PM CST
Nautical Twilight 5:52 AM CST 7:06 PM CST
Astronomical Twilight 5:23 AM CST 7:36 PM CST
Moon 6:03 AM CST (2/28) 5:48 PM CST (2/28)
Length of Visible Light 12h 13m
Length of Day
11h 22m
Waning Crescent, 1% of the Moon is Illuminated
Feb 28
Waning Crescent
Mar 1
New
Mar 8
First Quarter
Mar 16
Full
Mar 23
Last Quarter

Hourly Weather History & Observations

Time (CST) Temp. Windchill Dew Point Humidity Pressure Visibility Wind Dir Wind Speed Gust Speed Precip Events Conditions
12:15 AM 32.0 °F 24.8 °F 15.8 °F 51% 29.88 in 10.0 mi SSE 8.1 mph - N/A   Clear
12:35 AM 32.0 °F 25.6 °F 15.8 °F 51% 29.87 in 10.0 mi SSE 6.9 mph - N/A   Clear
12:55 AM 33.8 °F 27.7 °F 17.6 °F 52% 29.87 in 10.0 mi SE 6.9 mph - N/A   Clear
1:15 AM 33.8 °F 27.0 °F 17.6 °F 52% 29.87 in 10.0 mi SE 8.1 mph - N/A   Clear
1:35 AM 33.8 °F 26.4 °F 17.6 °F 52% 29.86 in 10.0 mi SE 9.2 mph - N/A   Clear
1:55 AM 33.8 °F 27.7 °F 17.6 °F 52% 29.87 in 10.0 mi SE 6.9 mph - N/A   Clear
2:15 AM 33.8 °F 27.0 °F 17.6 °F 52% 29.86 in 10.0 mi SE 8.1 mph - N/A   Clear
2:35 AM 33.8 °F 27.0 °F 17.6 °F 52% 29.86 in 10.0 mi SE 8.1 mph - N/A   Clear
2:55 AM 33.8 °F 28.6 °F 17.6 °F 52% 29.85 in 10.0 mi ESE 5.8 mph - N/A   Clear
3:15 AM 35.6 °F 28.6 °F 17.6 °F 48% 29.84 in 10.0 mi ESE 9.2 mph - N/A   Clear
3:35 AM 35.6 °F 28.6 °F 17.6 °F 48% 29.83 in 10.0 mi ESE 9.2 mph - N/A   Clear
3:55 AM 35.6 °F 28.0 °F 15.8 °F 44% 29.83 in 10.0 mi ESE 10.4 mph - N/A   Clear
4:15 AM 33.8 °F 27.0 °F 15.8 °F 48% 29.83 in 10.0 mi ESE 8.1 mph - N/A   Clear
4:35 AM 33.8 °F 26.4 °F 17.6 °F 52% 29.83 in 10.0 mi ESE 9.2 mph - N/A   Clear
4:55 AM 35.6 °F 28.6 °F 17.6 °F 48% 29.83 in 10.0 mi ESE 9.2 mph - N/A   Clear
5:15 AM 35.6 °F 28.0 °F 17.6 °F 48% 29.83 in 10.0 mi SE 10.4 mph - N/A   Clear
5:35 AM 35.6 °F 28.0 °F 15.8 °F 44% 29.84 in 10.0 mi ESE 10.4 mph - N/A   Clear
5:55 AM 33.8 °F 26.4 °F 17.6 °F 52% 29.84 in 10.0 mi ESE 9.2 mph - N/A   Clear
6:15 AM 33.8 °F 25.8 °F 15.8 °F 48% 29.84 in 10.0 mi SE 10.4 mph - N/A   Clear
6:35 AM 33.8 °F 25.3 °F 17.6 °F 52% 29.83 in 10.0 mi SE 11.5 mph - N/A   Clear
6:55 AM 33.8 °F 25.3 °F 17.6 °F 52% 29.82 in 10.0 mi SE 11.5 mph - N/A   Clear
7:15 AM 35.6 °F 27.1 °F 15.8 °F 44% 29.81 in 10.0 mi SE 12.7 mph - N/A   Clear
7:35 AM 35.6 °F 26.6 °F 17.6 °F 48% 29.81 in 10.0 mi SE 13.8 mph 18.4 mph N/A   Clear
7:55 AM 37.4 °F 28.5 °F 17.6 °F 45% 29.81 in 10.0 mi SE 15.0 mph 20.7 mph N/A   Clear
8:15 AM 39.2 °F 31.2 °F 17.6 °F 42% 29.82 in 10.0 mi SE 13.8 mph - N/A   Clear
8:35 AM 39.2 °F 30.8 °F 17.6 °F 42% 29.81 in 10.0 mi SE 15.0 mph 20.7 mph N/A   Partly Cloudy
8:55 AM 39.2 °F 31.2 °F 19.4 °F 45% 29.81 in 10.0 mi SE 13.8 mph - N/A   Scattered Clouds
9:15 AM 41.0 °F 33.9 °F 19.4 °F 42% 29.83 in 10.0 mi SSE 12.7 mph 19.6 mph N/A   Mostly Cloudy
9:35 AM 41.0 °F 35.2 °F 23.0 °F 49% 29.85 in 10.0 mi SSE 9.2 mph - N/A   Overcast
9:55 AM 42.8 °F 38.6 °F 23.0 °F 46% 29.85 in 10.0 mi SSE 6.9 mph - N/A   Mostly Cloudy
10:15 AM 42.8 °F 37.5 °F 24.8 °F 49% 29.85 in 10.0 mi SE 9.2 mph - N/A   Mostly Cloudy
10:35 AM 44.6 °F 38.4 °F 24.8 °F 46% 29.84 in 10.0 mi SE 12.7 mph 16.1 mph N/A   Overcast
10:55 AM 44.6 °F 39.2 °F 26.6 °F 49% 29.84 in 10.0 mi SE 10.4 mph - N/A   Overcast
11:15 AM 42.8 °F 36.2 °F 32.0 °F 66% 29.85 in 10.0 mi South 12.7 mph 18.4 mph 0.02 in   Overcast
11:35 AM 42.8 °F 39.3 °F 33.8 °F 70% 29.84 in 10.0 mi South 5.8 mph - 0.03 in   Overcast
11:55 AM 42.8 °F 35.4 °F 33.8 °F 70% 29.83 in 10.0 mi SE 15.0 mph 20.7 mph 0.03 in   Overcast
12:15 PM 42.8 °F 36.2 °F 32.0 °F 66% 29.84 in 10.0 mi SSE 12.7 mph - N/A   Overcast
12:35 PM 42.8 °F 36.2 °F 33.8 °F 70% 29.83 in 10.0 mi SE 12.7 mph 19.6 mph N/A   Overcast
12:55 PM 42.8 °F 35.1 °F 33.8 °F 70% 29.82 in 10.0 mi SE 16.1 mph 20.7 mph N/A   Overcast
1:15 PM 42.8 °F 34.8 °F 32.0 °F 66% 29.81 in 10.0 mi SE 17.3 mph 23.0 mph N/A   Overcast
1:35 PM 42.8 °F 36.2 °F 32.0 °F 66% 29.80 in 10.0 mi SE 12.7 mph 20.7 mph N/A   Overcast
1:55 PM 42.8 °F 36.2 °F 33.8 °F 70% 29.80 in 10.0 mi SE 12.7 mph - N/A   Overcast
2:15 PM 44.6 °F 39.2 °F 33.8 °F 66% 29.81 in 10.0 mi SSE 10.4 mph - N/A   Overcast
2:35 PM 44.6 °F 38.4 °F 32.0 °F 61% 29.80 in 10.0 mi SE 12.7 mph 16.1 mph N/A   Overcast
2:55 PM 44.6 °F 38.1 °F 32.0 °F 61% 29.81 in 10.0 mi SSE 13.8 mph - N/A   Overcast
3:15 PM 44.6 °F 38.1 °F 32.0 °F 61% 29.81 in 10.0 mi SSE 13.8 mph - N/A   Overcast
3:35 PM 42.8 °F 37.0 °F 30.2 °F 61% 29.82 in 10.0 mi SSE 10.4 mph - N/A   Overcast
3:55 PM 42.8 °F 35.8 °F 30.2 °F 61% 29.82 in 10.0 mi SSE 13.8 mph 17.3 mph N/A   Overcast
4:15 PM 42.8 °F 36.2 °F 30.2 °F 61% 29.82 in 10.0 mi SSE 12.7 mph - N/A   Overcast
4:35 PM 42.8 °F 35.8 °F 30.2 °F 61% 29.83 in 10.0 mi SSE 13.8 mph - N/A   Overcast
4:55 PM 42.8 °F 36.2 °F 30.2 °F 61% 29.84 in 10.0 mi SE 12.7 mph - N/A   Overcast
5:15 PM 41.0 °F 34.3 °F 30.2 °F 65% 29.85 in 10.0 mi SSE 11.5 mph - N/A   Overcast
5:35 PM 41.0 °F 34.3 °F 30.2 °F 65% 29.85 in 10.0 mi SSE 11.5 mph - N/A   Overcast
5:55 PM 39.2 °F 32.5 °F 32.0 °F 75% 29.86 in 10.0 mi SSE 10.4 mph - N/A   Overcast
6:15 PM 39.2 °F 32.5 °F 32.0 °F 75% 29.86 in 10.0 mi SE 10.4 mph - N/A   Overcast
6:35 PM 39.2 °F 31.6 °F 33.8 °F 81% 29.87 in 10.0 mi SSE 12.7 mph - N/A   Overcast
6:55 PM 39.2 °F 32.5 °F 33.8 °F 81% 29.87 in 10.0 mi SE 10.4 mph - N/A   Overcast
7:15 PM 39.2 °F 32.0 °F 33.8 °F 81% 29.88 in 10.0 mi SE 11.5 mph - N/A   Overcast
7:35 PM 39.2 °F 32.5 °F 33.8 °F 81% 29.89 in 10.0 mi SE 10.4 mph - N/A   Overcast
7:55 PM 39.2 °F 33.6 °F 32.0 °F 75% 29.89 in 10.0 mi ESE 8.1 mph - N/A   Overcast
8:15 PM 39.2 °F 34.2 °F 32.0 °F 75% 29.91 in 10.0 mi SE 6.9 mph - N/A   Overcast
8:35 PM 39.2 °F 33.6 °F 32.0 °F 75% 29.90 in 10.0 mi ESE 8.1 mph - N/A   Overcast
8:55 PM 39.2 °F 33.0 °F 32.0 °F 75% 29.91 in 10.0 mi ESE 9.2 mph - N/A   Overcast
9:15 PM 39.2 °F 34.2 °F 32.0 °F 75% 29.93 in 10.0 mi SE 6.9 mph - N/A   Overcast
9:35 PM 39.2 °F 35.0 °F 33.8 °F 81% 29.94 in 10.0 mi SE 5.8 mph - N/A   Overcast
9:55 PM 39.2 °F 34.2 °F 33.8 °F 81% 29.95 in 10.0 mi SE 6.9 mph - N/A   Overcast
10:15 PM 39.2 °F 35.0 °F 33.8 °F 81% 29.95 in 10.0 mi ESE 5.8 mph - N/A   Overcast
10:35 PM 39.2 °F 35.0 °F 33.8 °F 81% 29.95 in 10.0 mi ESE 5.8 mph - N/A   Overcast
10:55 PM 39.2 °F 35.0 °F 33.8 °F 81% 29.96 in 10.0 mi ESE 5.8 mph - N/A   Overcast
11:15 PM 39.2 °F 35.0 °F 33.8 °F 81% 29.96 in 10.0 mi ESE 5.8 mph - N/A   Overcast
11:35 PM 39.2 °F 35.9 °F 33.8 °F 81% 29.97 in 10.0 mi SE 4.6 mph - N/A   Overcast
11:55 PM 39.2 °F 35.9 °F 33.8 °F 81% 29.98 in 10.0 mi SE 4.6 mph - N/A   Overcast